GW5197 Weather Reports


time (UTC)temp
C
wind
direction
speed
KPH
gust
KPH
rain 1hr
cm
rain 24hr
cm
rain mn
cm
humidity
%
barometer
mb
20260906120657 21 227 3.2 4.8 0.00 0.00 0.00 99 1013.0
20260906120157 21 221 3.2 6.4 0.00 0.00 0.00 99 1013.0
20260906115657 21 227 3.2 4.8 0.00 0.00 0.00 99 1013.0
20260906115157 21 226 3.2 3.2 0.00 0.00 0.00 99 1013.0
20260906114657 21 226 3.2 3.2 0.00 0.00 0.00 99 1013.0
20260906114157 21 227 3.2 4.8 0.00 0.00 0.00 99 1013.0
20260906113658 21 227 3.2 4.8 0.00 0.00 0.00 99 1013.0
20260906113157 21 227 3.2 6.4 0.00 0.00 0.00 99 1013.0
20260906112658 21 226 3.2 4.8 0.00 0.00 0.00 99 1013.0
20260906112157 21 227 3.2 4.8 0.00 0.00 0.00 99 1013.0
20260906111657 21 226 3.2 4.8 0.00 0.00 0.00 100 1013.0
20260906111157 21 227 3.2 4.8 0.00 0.00 0.00 100 1013.0
20260906110657 21 224 3.2 4.8 0.00 0.00 0.00 100 1013.0
20260906110157 21 226 3.2 4.8 0.00 0.00 0.00 100 1013.0
20260906105657 21 222 3.2 6.4 0.00 0.00 0.00 100 1013.0
20260906105157 21 216 3.2 6.4 0.00 0.00 0.00 100 1013.0
20260906104658 21 224 1.6 3.2 0.00 0.00 0.00 100 1013.0
20260906104157 21 227 1.6 3.2 0.00 0.00 0.00 100 1013.0
20260906103657 21 226 1.6 3.2 0.00 0.00 0.00 100 1013.0
20260906103157 21 227 3.2 3.2 0.00 0.00 0.00 100 1013.0
20260906102657 21 227 4.8 4.8 0.00 0.00 0.00 100 1013.0
20260906102157 21 227 3.2 4.8 0.00 0.00 0.00 100 1013.0
20260906101657 21 227 4.8 4.8 0.00 0.00 0.00 100 1013.0
20260906101158 21 227 3.2 6.4 0.00 0.00 0.00 100 1013.0
20260906100657 21 227 4.8 4.8 0.00 0.00 0.00 100 1013.0
20260906100157 21 228 4.8 4.8 0.00 0.00 0.00 100 1013.0
20260906095658 21 228 4.8 6.4 0.00 0.00 0.00 100 1013.0
20260906095157 21 227 4.8 6.4 0.00 0.00 0.00 100 1013.0
20260906094658 21 227 4.8 6.4 0.00 0.00 0.00 100 1013.0
20260906094158 21 228 4.8 4.8 0.00 0.00 0.00 100 1013.0
20260906093657 21 228 3.2 4.8 0.00 0.00 0.00 100 1013.0
20260906093158 21 227 3.2 4.8 0.00 0.00 0.00 100 1013.0
20260906092657 21 227 3.2 3.2 0.00 0.00 0.00 100 1013.0
20260906092157 21 227 3.2 4.8 0.00 0.00 0.00 100 1013.0
20260906091657 21 227 3.2 3.2 0.00 0.00 0.00 100 1013.0
20260906091157 21 227 3.2 4.8 0.00 0.00 0.00 100 1013.0
20260906090657 21 221 3.2 6.4 0.00 0.00 0.00 100 1013.0
20260906090158 21 227 3.2 3.2 0.00 0.00 0.00 100 1013.0
20260906085657 21 226 3.2 4.8 0.00 0.00 0.00 100 1013.0
20260906085157 21 227 3.2 3.2 0.00 0.00 0.00 100 1013.0
20260906084657 21 224 3.2 4.8 0.00 0.00 0.00 100 1013.0
20260906084157 21 227 3.2 4.8 0.00 0.00 0.00 100 1013.0
20260906083657 21 227 3.2 4.8 0.00 0.00 0.00 100 1013.0
20260906083157 21 227 3.2 3.2 0.00 0.00 0.00 100 1013.0
20260906082657 21 227 3.2 3.2 0.00 0.00 0.00 100 1013.0
20260906082157 21 227 3.2 3.2 0.00 0.00 0.00 100 1013.0
20260906081657 21 224 3.2 3.2 0.00 0.00 0.00 100 1013.0
20260906081157 21 227 3.2 3.2 0.00 0.00 0.00 100 1013.0
20260906080657 21 226 3.2 4.8 0.00 0.00 0.00 100 1013.0
20260906080157 21 227 3.2 4.8 0.00 0.00 0.00 100 1013.0
20260906075657 21 223 4.8 4.8 0.00 0.00 0.00 100 1013.0
20260906075157 21 219 3.2 4.8 0.00 0.00 0.00 100 1013.0
20260906074657 21 227 3.2 4.8 0.00 0.00 0.00 100 1013.0
20260906074157 21 227 1.6 3.2 0.00 0.00 0.00 100 1013.0
20260906073657 21 227 1.6 3.2 0.00 0.00 0.00 100 1013.0
20260906073157 21 226 1.6 3.2 0.00 0.00 0.00 100 1013.0
20260906072657 21 227 3.2 3.2 0.00 0.00 0.00 100 1013.0
20260906072158 21 217 3.2 4.8 0.00 0.00 0.00 100 1013.0
20260906071659 21 226 3.2 3.2 0.00 0.00 0.00 100 1013.0
20260906071157 21 227 1.6 3.2 0.00 0.00 0.00 100 1013.0
20260906070657 21 227 1.6 3.2 0.00 0.00 0.00 100 1013.0
20260906070157 21 227 3.2 3.2 0.00 0.00 0.00 100 1013.0
20260906065657 21 227 3.2 3.2 0.00 0.00 0.00 100 1013.0
20260906065157 21 227 3.2 3.2 0.00 0.00 0.00 100 1013.0
20260906064658 21 227 3.2 3.2 0.00 0.00 0.00 100 1013.0
20260906064157 21 227 3.2 4.8 0.00 0.00 0.00 100 1013.0
20260906063657 21 227 3.2 4.8 0.00 0.00 0.00 100 1013.0
20260906063157 21 227 3.2 4.8 0.00 0.00 0.00 100 1013.0
20260906062657 21 226 3.2 3.2 0.00 0.00 0.00 100 1013.0
20260906062157 21 226 3.2 3.2 0.00 0.00 0.00 100 1013.0
20260906061658 21 227 3.2 3.2 0.00 0.00 0.00 99 1013.0
20260906061157 21 227 1.6 3.2 0.00 0.00 0.00 99 1013.0
20260906060657 21 227 1.6 3.2 0.00 0.00 0.00 99 1014.0
20260906060157 21 227 1.6 3.2 0.00 0.00 0.00 99 1014.0
20260906055657 21 227 3.2 3.2 0.00 0.00 0.00 99 1014.0
20260906055158 21 227 1.6 3.2 0.00 0.00 0.00 99 1014.0
20260906054659 21 227 1.6 1.6 0.00 0.00 0.00 99 1014.0
20260906054158 21 227 3.2 3.2 0.00 0.00 0.00 99 1014.0
20260906053657 21 220 3.2 6.4 0.00 0.00 0.00 99 1014.0
20260906053157 21 225 3.2 3.2 0.00 0.00 0.00 99 1014.0
20260906052657 21 226 3.2 3.2 0.00 0.00 0.00 99 1014.0
20260906052157 22 227 3.2 3.2 0.00 0.00 0.00 99 1014.0
20260906051657 22 227 1.6 3.2 0.00 0.00 0.00 99 1014.0
20260906051159 22 227 1.6 3.2 0.00 0.00 0.00 99 1014.0
20260906050657 22 227 1.6 3.2 0.00 0.00 0.00 99 1014.0
20260906050157 22 227 1.6 3.2 0.00 0.00 0.00 99 1014.0
20260906045657 22 227 1.6 3.2 0.00 0.00 0.00 99 1014.0
20260906045158 22 227 1.6 3.2 0.00 0.00 0.00 99 1014.0
20260906044657 22 227 1.6 1.6 0.00 0.00 0.00 99 1014.0
20260906044157 22 227 3.2 3.2 0.00 0.00 0.00 99 1014.0
20260906043657 22 222 1.6 3.2 0.00 0.00 0.00 99 1014.0
20260906043157 22 219 1.6 4.8 0.00 0.00 0.00 99 1014.0
20260906042657 22 227 3.2 3.2 0.00 0.00 0.00 99 1014.0
20260906042157 22 227 3.2 3.2 0.00 0.00 0.00 99 1014.0
20260906041657 22 220 3.2 6.4 0.00 0.00 0.00 99 1014.0
20260906041200 22 226 3.2 3.2 0.00 0.00 0.00 99 1014.0
20260906040658 22 227 3.2 3.2 0.00 0.00 0.00 99 1014.0
20260906040157 22 227 1.6 3.2 0.00 0.00 0.00 99 1014.0
20260906035657 22 227 1.6 1.6 0.00 0.00 0.91 99 1014.0
20260906035157 22 227 1.6 3.2 0.00 0.00 0.91 99 1014.0
20260906034657 22 227 1.6 1.6 0.00 0.00 0.91 99 1014.0
20260906034157 22 227 1.6 3.2 0.00 0.00 0.91 99 1014.0
20260906033657 22 227 1.6 1.6 0.00 0.00 0.91 99 1014.0
20260906033157 22 227 1.6 3.2 0.00 0.00 0.91 99 1014.0
20260906032658 22 227 1.6 3.2 0.00 0.00 0.91 99 1014.0
20260906032157 22 227 1.6 3.2 0.00 0.00 0.91 99 1014.0
20260906031657 22 227 3.2 3.2 0.00 0.00 0.91 99 1014.0
20260906031157 22 227 1.6 1.6 0.00 0.00 0.91 99 1014.0
20260906030657 22 227 1.6 3.2 0.00 0.00 0.91 99 1014.0
20260906030157 22 227 1.6 3.2 0.00 0.00 0.91 99 1014.0
20260906025657 22 227 1.6 3.2 0.00 0.00 0.91 99 1014.0
20260906025157 22 227 1.6 3.2 0.00 0.00 0.91 99 1014.0
20260906024658 22 227 1.6 3.2 0.00 0.00 0.91 99 1014.0
20260906024157 22 227 1.6 3.2 0.00 0.00 0.91 99 1014.0
20260906023657 22 227 1.6 3.2 0.00 0.00 0.91 99 1014.0
20260906023157 22 227 1.6 3.2 0.00 0.00 0.91 99 1014.0
20260906022657 22 227 3.2 3.2 0.00 0.00 0.91 98 1014.0
20260906022157 22 227 1.6 3.2 0.00 0.00 0.91 98 1014.0
20260906021657 22 227 1.6 3.2 0.00 0.00 0.91 98 1014.0
20260906021157 22 227 3.2 4.8 0.00 0.00 0.91 98 1014.0
20260906020658 22 227 3.2 4.8 0.00 0.00 0.91 98 1014.0
20260906020157 22 227 3.2 4.8 0.00 0.00 0.91 98 1014.0
20260906015657 22 226 1.6 3.2 0.00 0.00 0.91 98 1014.0
20260906015157 22 227 1.6 3.2 0.00 0.00 0.91 98 1014.0
20260906014658 22 227 3.2 3.2 0.00 0.00 0.91 98 1014.0
20260906014157 22 223 1.6 3.2 0.00 0.00 0.91 98 1014.0
20260906013657 22 227 1.6 3.2 0.00 0.00 0.91 98 1014.0
20260906013157 22 227 3.2 3.2 0.00 0.00 0.91 97 1014.0
20260906012658 22 227 3.2 3.2 0.00 0.00 0.91 97 1014.0
20260906012157 22 227 3.2 3.2 0.00 0.00 0.91 97 1014.0
20260906011657 22 226 3.2 4.8 0.00 0.00 0.91 97 1014.0
20260906011157 22 227 1.6 3.2 0.00 0.00 0.91 96 1014.0
20260906010657 22 226 3.2 3.2 0.00 0.00 0.91 96 1014.0
20260906010158 22 226 6.4 6.4 0.00 0.00 0.91 96 1014.0
20260906005657 22 227 4.8 6.4 0.00 0.00 0.91 96 1014.0
20260906005158 22 227 4.8 6.4 0.00 0.00 0.91 96 1014.0
20260906004657 22 226 6.4 8.0 0.00 0.00 0.91 96 1014.0
20260906004157 22 227 6.4 6.4 0.00 0.00 0.91 97 1014.0
20260906003657 22 227 6.4 8.0 0.00 0.00 0.91 97 1014.0
20260906003158 22 227 4.8 6.4 0.00 0.00 0.91 98 1013.0
20260906002658 22 226 3.2 3.2 0.00 0.00 0.91 98 1013.0
20260906002157 22 216 3.2 6.4 0.00 0.00 0.91 98 1013.0
20260906001659 22 227 1.6 3.2 0.00 0.00 0.91 98 1013.0
20260906001158 22 227 1.6 3.2 0.00 0.00 0.91 97 1013.0
20260906000657 22 227 3.2 3.2 0.00 0.00 0.91 97 1013.0
20260906000157 22 227 1.6 1.6 0.00 0.00 0.91 97 1012.0
20260905235659 22 227 1.6 3.2 0.00 0.00 0.89 97 1012.0
20260905235158 22 226 1.6 3.2 0.00 0.00 0.89 97 1012.0
20260905234657 22 228 1.6 3.2 0.00 0.00 0.89 97 1012.0
20260905234158 22 226 1.6 3.2 0.00 0.00 0.89 97 1012.0
20260905233657 22 227 1.6 3.2 0.00 0.00 0.89 96 1011.0
20260905233157 22 227 1.6 3.2 0.00 0.00 0.89 97 1011.0
20260905232657 22 227 3.2 3.2 0.00 0.00 0.84 96 1011.0
20260905232157 22 141 3.2 8.0 0.00 0.00 0.84 95 1011.0
20260905231658 22 127 4.8 8.0 0.00 0.00 1.50 94 1012.0
20260905231157 21 117 6.4 8.0 0.00 0.00 1.50 94 1012.0
20260905230657 21 176 6.4 9.7 0.03 0.00 1.50 94 1012.0
20260905230157 21 178 6.4 8.0 0.10 0.00 1.24 95 1013.0
20260905225657 21 101 6.4 9.7 0.28 0.00 1.22 95 1013.0
20260905225213 22 100 6.4 9.7 0.69 0.00 1.63 94 1013.0
20260905224657 22 112 4.8 9.7 4.98 0.00 1.50 93 1015.0
20260905224157 23 36 8.0 14.5 6.73 0.00 0.99 93 1015.0
20260905223657 24 53 8.0 12.9 3.56 0.00 0.51 90 1016.0
20260905223157 25 73 9.7 17.7 0.28 0.00 0.41 90 1015.0
20260905222657 28 82 6.4 11.3 3.53 0.00 0.23 84 1014.0
20260905222158 31 78 8.0 12.9 0.58 0.00 0.03 68 1014.0
20260905221658 34 49 8.0 14.5 0.00 0.00 0.00 52 1013.0
20260905221234 35 54 4.8 8.0 0.00 0.00 0.00 50 1012.0
20260905220657 35 19 6.4 9.7 0.00 0.00 0.00 47 1012.0
20260905220158 35 10 1.6 3.2 0.00 0.00 0.00 47 1012.0
20260905215700 35 20 1.6 6.4 0.00 0.00 0.00 47 1011.0
20260905215157 35 222 0.0 1.6 0.00 0.00 0.00 47 1011.0
20260905214657 35 341 0.0 3.2 0.00 0.00 0.00 46 1011.0
20260905214157 35 117 3.2 3.2 0.00 0.00 0.00 46 1011.0
20260905213657 35 332 1.6 3.2 0.00 0.00 0.00 45 1011.0
20260905213157 35 118 3.2 4.8 0.00 0.00 0.00 46 1011.0
20260905212657 35 95 3.2 3.2 0.00 0.00 0.00 46 1011.0
20260905212157 35 48 1.6 3.2 0.00 0.00 0.00 46 1011.0
20260905211700 35 130 0.0 3.2 0.00 0.00 0.00 45 1011.0
20260905211157 35 107 1.6 3.2 0.00 0.00 0.00 48 1011.0
20260905210657 35 129 0.0 3.2 0.00 0.00 0.00 47 1011.0
20260905210157 35 54 3.2 4.8 0.00 0.00 0.00 46 1012.0
20260905205658 35 51 0.0 1.6 0.00 0.00 0.00 47 1012.0
20260905205157 35 355 0.0 1.6 0.00 0.00 0.00 46 1012.0
20260905204658 35 98 3.2 6.4 0.00 0.00 0.00 46 1012.0
20260905204157 35 129 0.0 1.6 0.00 0.00 0.00 46 1012.0
20260905203657 35 6 1.6 4.8 0.00 0.00 0.00 46 1012.0
20260905203157 35 15 3.2 4.8 0.00 0.00 0.00 46 1012.0
20260905202657 35 60 1.6 3.2 0.00 0.00 0.00 48 1012.0
20260905202157 35 360 0.0 0.0 0.00 0.00 0.00 46 1012.0
20260905201657 35 320 0.0 3.2 0.00 0.00 0.00 46 1012.0
20260905201157 35 330 0.0 1.6 0.00 0.00 0.00 47 1012.0
20260905200658 35 114 1.6 4.8 0.00 0.00 0.00 45 1012.0
20260905200157 35 306 3.2 4.8 0.00 0.00 0.00 47 1012.0
20260905195657 35 79 3.2 4.8 0.00 0.00 0.00 47 1012.0
20260905195157 35 360 3.2 6.4 0.00 0.00 0.00 46 1012.0
20260905194657 35 7 4.8 6.4 0.00 0.00 0.00 47 1012.0
20260905194157 35 105 3.2 6.4 0.00 0.00 0.00 49 1012.0
20260905193657 35 58 1.6 3.2 0.00 0.00 0.00 48 1012.0
20260905193157 35 1 3.2 4.8 0.00 0.00 0.00 47 1012.0
20260905192658 35 45 1.6 3.2 0.00 0.00 0.00 47 1013.0
20260905192157 35 19 3.2 4.8 0.00 0.00 0.00 48 1013.0
20260905191659 35 307 3.2 4.8 0.00 0.00 0.00 49 1013.0
20260905191157 35 21 1.6 3.2 0.00 0.00 0.00 49 1013.0
20260905190657 35 104 1.6 4.8 0.00 0.00 0.00 50 1013.0
20260905190157 35 24 1.6 3.2 0.00 0.00 0.00 50 1013.0
20260905185657 34 124 0.0 3.2 0.00 0.00 0.00 50 1013.0
20260905185157 34 65 1.6 3.2 0.00 0.00 0.00 49 1013.0
20260905184657 33 340 3.2 3.2 0.00 0.00 0.00 51 1013.0
20260905184157 33 71 0.0 1.6 0.00 0.00 0.00 54 1013.0
20260905183657 33 311 3.2 4.8 0.00 0.00 0.00 54 1013.0
20260905183157 34 360 0.0 0.0 0.00 0.00 0.00 55 1013.0
20260905182658 34 98 1.6 4.8 0.00 0.00 0.00 52 1014.0
20260905182201 35 10 4.8 6.4 0.00 0.00 0.00 51 1013.0
20260905181659 35 278 3.2 4.8 0.00 0.00 0.00 51 1013.0
20260905181157 35 336 3.2 6.4 0.00 0.00 0.00 51 1013.0
20260905180657 35 32 1.6 3.2 0.00 0.00 0.00 51 1014.0
20260905180157 35 74 1.6 4.8 0.00 0.00 0.00 52 1014.0
20260905175657 34 140 1.6 3.2 0.00 0.00 0.00 54 1014.0
20260905175157 34 333 3.2 4.8 0.00 0.00 0.00 52 1014.0
20260905174658 34 18 1.6 6.4 0.00 0.00 0.00 53 1014.0
20260905174158 33 348 3.2 6.4 0.00 0.00 0.00 54 1014.0
20260905173657 33 351 3.2 3.2 0.00 0.00 0.00 54 1014.0
20260905173157 33 194 0.0 3.2 0.00 0.00 0.00 56 1014.0
20260905172657 33 122 1.6 4.8 0.00 0.00 0.00 57 1014.0
20260905172159 33 132 3.2 4.8 0.00 0.00 0.00 55 1014.0
20260905171657 34 129 1.6 4.8 0.00 0.00 0.00 54 1014.0
20260905171157 33 63 3.2 4.8 0.00 0.00 0.00 55 1014.0
20260905170657 33 48 3.2 4.8 0.00 0.00 0.00 54 1014.0
20260905170157 33 3 1.6 4.8 0.00 0.00 0.00 56 1014.0
20260905165657 33 6 1.6 4.8 0.00 0.00 0.00 57 1014.0
20260905165157 33 10 6.4 9.7 0.00 0.00 0.00 56 1014.0
20260905164658 33 223 0.0 1.6 0.00 0.00 0.00 55 1014.0
20260905164157 33 67 3.2 4.8 0.00 0.00 0.00 57 1015.0
20260905163657 33 345 0.0 3.2 0.00 0.00 0.00 56 1015.0
20260905163200 32 10 1.6 3.2 0.00 0.00 0.00 57 1015.0
20260905162657 33 124 4.8 6.4 0.00 0.00 0.00 56 1015.0
20260905162157 33 329 3.2 6.4 0.00 0.00 0.00 56 1015.0
20260905161658 33 31 3.2 9.7 0.00 0.00 0.00 55 1015.0
20260905161157 33 8 1.6 4.8 0.00 0.00 0.00 56 1015.0
20260905160658 32 19 3.2 8.0 0.00 0.00 0.00 57 1015.0
20260905160158 33 96 3.2 4.8 0.00 0.00 0.00 58 1015.0
20260905155657 33 321 3.2 3.2 0.00 0.00 0.00 58 1015.0
20260905155157 32 99 0.0 3.2 0.00 0.00 0.00 59 1015.0
20260905154657 32 286 1.6 3.2 0.00 0.00 0.00 60 1015.0
20260905154157 32 88 3.2 6.4 0.00 0.00 0.00 61 1015.0
20260905153657 32 123 4.8 8.0 0.00 0.00 0.00 61 1015.0
20260905153157 31 95 1.6 3.2 0.00 0.00 0.00 63 1015.0
20260905152707 31 140 3.2 4.8 0.00 0.00 0.00 63 1015.0
20260905152158 31 135 0.0 1.6 0.00 0.00 0.00 62 1015.0
20260905151658 31 133 1.6 3.2 0.00 0.00 0.00 62 1015.0
20260905151157 31 31 1.6 1.6 0.00 0.00 0.00 64 1015.0
20260905150658 31 112 1.6 4.8 0.00 0.00 0.00 65 1015.0
20260905150157 31 105 0.0 1.6 0.00 0.00 0.00 65 1015.0
20260905145657 30 258 1.6 3.2 0.00 0.00 0.00 66 1015.0
20260905145158 30 356 4.8 6.4 0.00 0.00 0.00 66 1015.0
20260905144657 30 114 1.6 3.2 0.00 0.00 0.00 68 1015.0
20260905144157 30 33 1.6 3.2 0.00 0.00 0.00 69 1015.0
20260905143657 30 348 1.6 3.2 0.00 0.00 0.00 68 1015.0
20260905143157 29 360 3.2 4.8 0.00 0.00 0.00 68 1015.0
20260905142657 29 60 1.6 3.2 0.00 0.00 0.00 70 1016.0
20260905142157 28 347 3.2 4.8 0.00 0.00 0.00 70 1016.0
20260905141657 28 350 1.6 3.2 0.00 0.00 0.00 71 1016.0
20260905141157 28 4 1.6 3.2 0.00 0.00 0.00 71 1016.0
20260905140658 28 323 1.6 3.2 0.00 0.00 0.00 73 1016.0
20260905140158 27 49 1.6 3.2 0.00 0.00 0.00 74 1016.0
20260905135658 27 30 0.0 1.6 0.00 0.00 0.00 74 1016.0
20260905135157 27 320 1.6 1.6 0.00 0.00 0.00 75 1016.0
20260905134657 27 123 1.6 4.8 0.00 0.00 0.00 77 1016.0
20260905134157 26 109 1.6 3.2 0.00 0.00 0.00 80 1016.0
20260905133657 26 104 1.6 3.2 0.00 0.00 0.00 80 1016.0
20260905133158 26 114 1.6 3.2 0.00 0.00 0.00 81 1016.0
20260905132657 26 87 1.6 3.2 0.00 0.00 0.00 80 1016.0
20260905132157 25 121 0.0 1.6 0.00 0.00 0.00 84 1016.0
20260905131657 25 79 1.6 3.2 0.00 0.00 0.00 85 1016.0
20260905131157 25 122 0.0 1.6 0.00 0.00 0.00 85 1016.0
20260905130657 25 64 0.0 1.6 0.00 0.00 0.00 87 1016.0
20260905130158 24 124 1.6 3.2 0.00 0.00 0.00 86 1016.0
20260905125657 24 135 1.6 3.2 0.00 0.00 0.00 89 1016.0
20260905125157 23 152 0.0 0.0 0.00 0.00 0.00 91 1016.0
20260905124658 23 124 0.0 1.6 0.00 0.00 0.00 91 1016.0
20260905124157 23 152 0.0 1.6 0.00 0.00 0.00 92 1016.0
20260905123658 23 161 0.0 1.6 0.00 0.00 0.00 92 1016.0
20260905122745 23 126 0.0 3.2 0.00 0.00 0.00 93 1016.0
20260905122157 22 137 0.0 3.2 0.00 0.00 0.00 94 1016.0
20260905121657 22 208 0.0 1.6 0.00 0.00 0.00 94 1016.0